Terminal Aerodrome Forecast
Issued by NWS Upton, NY

Home | Current Version | Previous Version | Text Only | Print | Product List | Glossary On
Versions: 1 2 3 4 5 6 7 8 9 10 11 12 13 14 15 16 17 18 19 20 21 22 23 24 25 26 27 28
000
FTUS41 KOKX 252300
TAFJFK
TAF
KJFK 252332Z 2600/2706 28014G20KT P6SM SCT050
     FM260200 28012KT P6SM SKC
     FM260800 28009KT P6SM SKC
     FM261400 27012KT P6SM SCT020
     FM262200 25010KT P6SM SKC=

USA.gov is the U.S. government's official web portal to all federal, state and local government web resources and services.